Temperature
18 18 18 18 17 17 17 17 17 17 17 17 16 16 16 17 17 17 16 17 17 17 17 17 17 17 17 17 17 17 17 17 17 17 17 17 17 17 17 17 17 17 17
18 18 18 18 17 17 17 17 17 17 17 17 16 16 16 16 17 17 17 17 17 17 17 17 17 17 17 17 17 17 17 17 17 17 17 17 17 17 17 17 17 17 17
17 17 18 18 17 17 16 17 17 16 16 16 16 16 16 16 16 16 16 16 16 16 17 17 17 17 17 17 17 17 17 17 17 17 17 17 17 16 16 16 16 16 16
17 17 17 17 17 17 16 16 17 16 16 16 16 16 16 16 16 16 16 16 16 16 16 17 17 17 17 17 17 17 17 17 17 17 17 17 17 16 16 16 16 16 16
17 17 17 17 17 17 17 17 17 16 16 16 16 16 16 16 16 16 16 16 16 17 16 16 17 17 17 17 17 17 16 16 16 17 17 17 17 16 16 16 16 16 16
17 17 17 17 17 17 17 17 17 16 16 16 16 16 16 15 15 16 16 16 16 17 17 17 17 16 16 16 17 17 16 16 16 16 16 17 17 17 16 16 16 16 15
17 17 17 17 17 17 17 17 17 16 16 16 16 15 15 15 15 15 15 16 16 16 17 17 16 16 16 16 16 16 16 16 16 16 16 16 16 16 16 16 16 16 15
17 17 17 17 17 17 17 17 16 16 16 16 16 15 15 15 15 15 15 15 15 16 16 16 16 16 16 16 16 16 16 16 16 16 16 16 16 16 16 16 16 15 15
17 17 17 17 17 17 16 16 16 16 16 16 15 15 15 15 15 15 15 15 15 15 16 16 16 16 16 16 16 16 16 16 16 16 16 16 16 16 15 15 15 15 15
17 17 17 17 16 16 16 16 16 16 16 15 15 15 15 15 15 15 15 15 15 15 15 15 16 15 15 15 16 16 16 16 16 16 16 16 16 16 15 15 15 15 15
17 17 17 17 16 16 16 16 16 15 15 15 15 15 14 15 15 15 15 15 15 15 15 15 15 15 15 15 15 15 15 16 16 16 16 16 16 16 16 15 15 15 15
17 17 17 16 16 16 16 15 15 15 15 15 15 15 15 15 15 15 14 15 15 15 15 15 15 15 15 15 15 15 15 15 15 15 16 16 16 16 15 15 15 14 14
17 16 16 16 16 15 15 15 15 15 15 15 15 15 15 15 15 15 14 14 15 15 15 15 15 15 15 15 15 15 15 15 15 15 15 15 15 15 15 15 15 15 14
16 16 16 15 15 15 15 14 14 14 14 14 14 14 14 14 14 14 15 14 14 14 15 15 16 16 16 15 15 15 15 15 15 15 15 15 15 15 15 15 15 15 14
16 16 16 15 15 15 15 14 14 14 14 14 14 14 14 14 13 14 14 14 14 14 14 15 15 16 16 16 15 15 15 15 15 15 15 15 15 15 15 15 14 14 14
16 16 16 15 15 14 14 14 14 14 14 14 13 13 13 13 13 13 14 14 14 13 14 15 15 16 15 16 15 15 15 15 15 15 15 15 15 15 15 15 14 14 14
16 16 15 15 15 14 14 14 14 14 14 14 14 13 13 13 13 13 13 13 13 13 13 14 15 15 15 16 16 15 15 15 15 15 15 14 14 15 14 14 14 14 14
17 16 16 15 15 14 14 14 14 14 14 14 13 13 13 13 13 13 13 13 13 13 13 14 14 15 15 15 15 15 15 15 15 15 15 14 14 14 14 14 14 14 14
17 16 16 16 15 15 14 14 14 14 14 14 13 13 13 12 12 12 13 13 13 13 13 13 14 14 14 15 15 15 15 15 15 15 15 14 14 14 14 14 14 14 14
17 16 16 16 15 15 15 14 14 14 14 14 13 13 13 13 12 12 12 12 13 13 13 13 13 13 14 14 15 15 15 15 15 15 14 14 14 14 14 14 14 14 14
17 16 16 16 16 15 15 15 14 14 14 14 14 13 13 13 13 12 12 12 12 12 12 12 12 13 13 13 14 15 15 15 15 14 14 14 14 14 13 13 14 14 14
16 16 16 16 16 15 15 15 15 14 14 14 14 14 13 13 13 13 12 12 12 12 12 12 12 12 12 13 13 13 14 14 14 14 14 14 14 14 13 13 14 14 14
16 15 15 15 15 15 15 15 15 14 14 14 14 13 13 13 13 13 13 12 12 12 12 12 12 12 12 12 12 12 13 13 14 14 13 14 14 14 13 13 13 14 14
14 14 14 14 14 14 15 15 15 14 14 14 14 13 13 13 13 13 13 13 13 13 12 12 12 12 11 12 12 12 12 12 13 13 13 13 14 14 14 13 13 13 13
13 13 13 13 13 13 14 14 14 14 14 14 14 13 13 13 13 13 13 13 13 13 13 12 12 12 11 11 11 11 12 12 12 13 13 13 13 13 14 14 13 13 13
12 12 12 12 12 12 13 13 13 13 14 14 13 13 13 13 13 13 13 13 13 13 13 13 12 12 11 11 11 11 11 11 11 12 12 12 12 12 13 13 13 13 13
Wind_Speed
4 4 4 4 4 4 3 2 2 3 5 6 6 5 4 5 5 6 7 8 6 1 3 5 6 4 3 4 5 7 9 9 9 9 7 6 4 3 2 2 2 2 3
6 4 4 4 4 5 4 3 3 3 3 4 4 4 3 3 4 6 8 9 9 6 2 3 5 5 4 4 5 6 7 7 7 7 6 4 3 2 1 1 1 2 3
9 6 4 4 5 6 5 3 4 3 3 3 3 3 2 2 3 5 7 8 9 9 5 4 6 6 6 6 7 7 8 8 7 6 5 4 3 1 1 0 0 1 3
11 7 5 5 6 7 5 3 3 3 2 2 2 1 1 1 1 3 5 7 8 9 10 9 8 7 7 7 7 7 8 8 7 6 5 4 2 1 2 2 1 1 2
12 8 5 4 6 5 4 4 3 3 3 3 2 1 1 1 0 1 3 4 6 8 9 11 12 11 8 7 6 7 6 6 6 5 4 3 2 2 3 3 2 2 3
12 9 5 6 6 5 5 5 4 2 3 3 3 2 2 1 1 1 1 2 3 5 7 7 8 10 10 9 7 6 5 5 5 5 4 3 2 2 2 3 3 4 5
11 8 4 5 6 6 7 7 4 4 2 3 3 2 3 2 1 1 1 1 1 2 3 4 5 5 7 9 9 7 7 7 7 6 5 3 2 1 2 3 4 5 5
9 8 7 6 7 6 6 7 5 4 3 3 4 3 1 3 2 1 1 1 2 2 0 2 3 3 4 5 7 8 8 8 8 7 6 4 3 2 1 1 2 3 4
8 7 7 6 7 7 7 8 7 7 5 3 2 4 4 4 2 3 2 1 2 2 2 2 2 2 1 1 3 5 6 6 6 7 6 6 6 5 4 3 2 3 4
7 8 7 6 7 6 7 8 7 5 6 5 3 2 2 3 3 1 3 2 2 4 4 3 4 4 4 3 2 2 3 4 4 5 6 7 8 8 7 6 5 6 7
5 6 7 6 7 6 7 8 8 8 6 6 5 4 3 1 2 2 2 3 2 3 4 4 5 6 7 6 6 5 3 3 4 4 4 5 5 6 6 6 6 6 6
3 5 5 5 5 5 5 6 7 8 8 6 5 5 5 4 4 4 3 3 3 3 3 4 4 7 10 10 9 8 6 4 4 4 3 3 3 4 4 4 5 4 4
3 4 4 4 4 4 4 4 5 6 7 7 7 7 5 5 4 5 4 3 3 3 2 3 5 9 11 12 11 10 9 7 5 5 4 3 2 2 3 3 4 4 4
3 4 5 5 4 4 4 4 4 5 5 7 8 7 5 5 4 5 5 4 2 2 3 5 3 8 11 13 15 13 11 10 9 7 6 4 3 2 1 2 3 4 4
3 4 4 4 3 3 4 4 4 4 4 6 6 7 6 5 5 5 5 5 5 3 4 5 4 5 10 13 15 14 14 13 12 10 9 7 5 3 2 1 1 2 4
3 4 4 4 4 3 3 3 3 3 4 4 4 6 6 5 5 5 5 6 6 6 5 4 5 3 5 9 14 14 15 14 14 13 11 9 7 5 4 3 2 2 4
5 5 5 5 5 5 4 3 3 2 3 3 4 5 6 6 6 6 6 6 7 7 8 5 3 3 5 6 7 11 13 13 13 14 14 12 10 8 7 6 5 4 4
5 6 5 5 5 5 5 5 4 3 3 3 4 4 5 5 7 6 7 8 8 8 8 7 4 4 6 5 4 6 8 11 12 14 15 14 13 11 10 9 8 6 5
4 5 5 6 6 6 6 6 5 5 4 4 4 4 5 5 6 6 7 8 8 8 8 7 5 4 3 2 2 3 4 6 9 12 14 16 16 15 14 12 10 8 7
4 5 5 6 6 6 6 6 6 6 5 5 5 5 4 5 6 6 6 7 7 7 7 6 5 3 3 2 2 3 4 6 6 7 10 12 15 17 16 14 13 11 10
4 5 5 5 5 5 6 7 7 7 6 5 4 4 4 5 6 5 4 4 5 5 5 5 4 4 4 3 4 4 5 3 4 5 5 6 9 10 13 15 16 15 14
2 3 5 5 5 5 7 9 8 7 7 6 5 4 4 4 5 6 6 6 6 5 5 4 3 4 5 5 4 4 4 3 3 4 5 4 5 8 10 13 17 17 17
3 3 3 3 5 6 8 8 9 7 7 7 6 5 4 4 5 4 5 6 7 9 8 4 4 4 4 4 5 5 5 4 4 3 4 3 3 6 9 14 18 20 20
6 6 6 5 4 5 7 7 7 5 5 6 6 6 6 5 4 5 5 5 6 6 7 6 5 5 3 3 3 3 4 4 3 2 4 3 3 4 4 9 16 20 21
7 7 6 7 6 7 9 7 3 2 2 3 4 5 6 5 6 7 6 6 7 7 9 11 10 8 7 7 5 3 3 3 3 3 5 3 2 2 3 4 9 15 19
7 7 8 8 8 8 13 11 5 2 1 1 1 2 5 6 6 6 7 7 7 7 5 5 7 8 6 7 8 6 4 4 2 3 4 4 2 2 3 2 1 3 8
Wind_Direction
168 175 178 174 151 137 144 120 83 117 132 133 126 116 98 75 55 37 18 15 17 23 187 181 169 177 198 195 177 172 169 168 167 168 170 170 169 164 133 88 73 49 22
174 173 178 180 170 162 169 148 119 117 122 131 124 121 102 71 55 47 37 27 23 30 78 142 148 144 139 134 131 142 148 152 157 164 161 164 167 163 123 83 76 47 20
182 178 180 189 180 165 165 148 119 109 110 118 131 137 127 71 42 36 38 38 33 30 49 110 122 125 125 122 116 118 121 121 123 126 127 125 126 154 257 292 81 44 13
188 180 186 198 179 159 160 163 149 137 145 147 148 151 152 152 47 27 36 43 45 40 43 72 96 109 121 121 119 116 114 114 114 115 116 119 127 209 260 266 266 352 347
196 188 193 194 173 157 164 181 166 154 164 165 151 101 89 169 86 33 31 34 48 52 51 58 70 76 93 109 118 118 120 124 127 128 128 133 158 226 251 265 273 311 324
194 190 191 188 173 164 174 179 168 150 147 150 118 65 25 16 60 47 7 1 34 56 60 58 60 62 68 75 90 106 116 126 133 136 139 148 172 213 233 254 275 292 302
185 179 176 176 174 182 183 170 153 156 144 134 104 47 359 20 51 21 18 319 319 29 65 62 53 54 58 63 70 88 95 103 106 110 117 125 142 195 235 260 282 296 302
183 181 175 176 177 174 167 165 154 154 160 158 138 122 348 331 313 329 348 244 257 285 255 97 81 59 55 58 63 78 85 89 90 95 97 99 114 146 200 272 310 332 344
179 175 174 173 178 174 178 178 172 166 172 183 175 153 163 215 272 306 290 258 241 248 256 227 176 144 117 73 60 75 88 89 92 92 96 94 88 88 88 80 40 27 34
176 178 175 176 177 177 180 186 183 175 165 177 189 190 156 151 153 284 303 285 249 237 237 232 213 206 199 201 203 159 115 103 103 102 94 93 90 83 78 70 57 54 61
171 170 171 174 180 184 186 183 183 189 188 184 177 166 155 131 128 161 260 286 288 253 234 229 221 217 216 214 215 211 181 134 105 107 98 90 86 82 75 61 56 55 52
160 172 173 178 185 188 193 193 194 197 202 199 195 187 175 168 176 170 201 244 258 269 243 230 222 220 219 218 221 222 209 182 142 119 109 97 82 74 66 53 42 30 24
171 179 168 175 183 198 203 196 198 205 203 206 208 212 209 194 160 159 166 195 242 275 279 244 223 219 218 217 221 222 217 207 188 169 152 134 116 90 70 53 38 19 9
173 165 172 177 184 189 197 198 207 214 208 213 216 212 211 210 185 170 166 166 203 264 269 260 233 216 216 213 219 218 217 215 209 200 192 188 187 167 111 72 42 16 360
174 166 166 165 173 184 196 196 216 222 213 216 219 214 210 207 204 194 176 174 184 226 259 248 240 223 214 213 216 213 213 215 214 212 208 209 210 209 200 164 38 353 341
176 162 157 156 162 179 195 201 223 226 216 217 210 213 214 209 209 206 202 197 199 208 237 247 237 233 203 216 216 213 214 216 218 217 217 218 220 224 228 232 247 298 324
180 182 179 173 176 184 190 196 223 222 220 224 217 217 224 213 213 211 207 207 210 208 232 246 236 228 205 212 206 207 214 215 219 220 222 223 224 228 233 238 240 252 279
190 192 188 189 191 187 187 194 213 212 214 226 230 230 236 226 220 215 214 217 216 211 219 238 235 219 222 213 195 194 206 218 220 222 224 226 227 228 230 234 236 239 248
202 200 197 204 207 196 191 197 202 210 218 226 227 228 236 228 229 222 220 220 218 216 215 225 230 205 197 170 167 192 200 215 222 224 226 229 231 232 231 233 237 242 249
223 221 220 221 220 209 197 195 196 204 213 226 232 236 237 229 233 230 227 224 216 212 210 218 220 198 187 169 170 189 208 211 220 217 220 225 231 236 236 236 238 242 246
234 225 228 229 228 223 214 200 197 199 202 213 228 239 244 241 240 233 226 219 210 210 208 214 210 193 191 182 203 196 213 193 218 209 210 221 227 234 236 237 238 238 237
280 241 237 236 237 241 240 221 199 194 194 197 207 218 235 245 248 243 242 227 207 201 206 213 218 220 214 202 183 183 183 175 240 199 195 231 208 234 238 234 234 233 232
3 342 313 283 272 275 277 266 227 195 194 196 197 198 208 218 227 234 250 249 233 225 216 204 219 228 217 202 184 187 195 199 217 181 163 238 204 237 241 237 235 234 232
20 14 6 353 331 322 315 294 275 217 200 197 196 197 202 218 219 216 224 238 241 239 232 226 223 223 211 197 194 200 198 210 220 186 172 234 222 234 241 236 236 232 229
25 22 19 18 11 355 357 344 314 178 185 193 193 197 203 220 236 222 212 233 247 250 242 234 230 228 225 222 220 226 221 221 237 219 190 217 248 247 254 252 245 237 232
23 24 27 23 22 13 11 15 38 92 118 146 185 211 222 232 249 236 207 216 238 248 229 226 231 239 238 243 250 244 235 227 220 239 188 199 240 240 294 274 286 259 238
Height
1540 1541 1542 1544 1545 1547 1548 1550 1551 1552 1553 1554 1554 1553 1552 1552 1551 1551 1551 1551 1551 1551 1551 1552 1552 1553 1553 1554 1555 1556 1557 1559 1561 1562 1563 1564 1564 1564 1564 1565 1565 1565 1565
1540 1541 1542 1543 1545 1547 1548 1550 1551 1552 1553 1554 1554 1553 1553 1552 1551 1551 1551 1551 1551 1551 1551 1551 1551 1552 1553 1554 1555 1555 1556 1558 1559 1561 1562 1563 1563 1563 1564 1564 1564 1564 1564
1539 1540 1541 1543 1545 1547 1548 1549 1551 1551 1552 1553 1553 1553 1552 1552 1552 1552 1551 1551 1551 1551 1551 1551 1551 1551 1552 1553 1554 1555 1556 1557 1559 1560 1560 1561 1562 1562 1563 1563 1562 1562 1563
1537 1539 1540 1542 1545 1546 1547 1549 1550 1551 1552 1552 1552 1552 1552 1552 1552 1552 1552 1552 1551 1552 1552 1551 1551 1552 1552 1553 1554 1555 1555 1556 1557 1558 1559 1559 1560 1560 1561 1561 1561 1561 1561
1535 1537 1539 1541 1543 1545 1546 1547 1548 1549 1550 1551 1552 1552 1552 1552 1552 1552 1552 1552 1552 1552 1553 1553 1552 1552 1553 1553 1554 1554 1555 1555 1556 1556 1557 1557 1558 1559 1559 1560 1560 1560 1560
1533 1534 1536 1539 1540 1542 1544 1545 1547 1548 1549 1550 1550 1551 1551 1551 1551 1551 1552 1552 1552 1553 1553 1554 1553 1553 1554 1554 1554 1554 1554 1555 1555 1555 1555 1556 1556 1557 1558 1559 1559 1559 1559
1530 1531 1533 1535 1537 1539 1541 1543 1544 1545 1547 1548 1549 1549 1550 1550 1550 1550 1551 1552 1552 1552 1553 1553 1554 1554 1554 1554 1555 1555 1555 1555 1555 1555 1555 1555 1555 1556 1556 1557 1557 1557 1557
1527 1529 1530 1532 1534 1536 1537 1539 1541 1542 1544 1545 1546 1547 1548 1549 1548 1548 1549 1550 1551 1552 1552 1553 1553 1553 1554 1554 1554 1555 1555 1555 1555 1555 1555 1555 1555 1555 1555 1556 1556 1556 1556
1525 1527 1528 1529 1531 1532 1534 1535 1537 1539 1541 1542 1544 1545 1545 1545 1546 1546 1547 1548 1549 1550 1551 1552 1552 1553 1553 1553 1554 1555 1555 1555 1555 1555 1555 1555 1555 1555 1555 1555 1555 1555 1555
1523 1524 1525 1526 1527 1528 1530 1531 1533 1534 1536 1538 1539 1540 1542 1543 1544 1544 1545 1546 1547 1548 1549 1550 1551 1552 1552 1553 1554 1554 1555 1555 1555 1555 1555 1555 1555 1555 1555 1555 1555 1554 1554
1521 1522 1522 1523 1524 1525 1526 1527 1528 1530 1531 1533 1534 1535 1537 1538 1540 1542 1543 1544 1545 1545 1547 1548 1549 1550 1551 1552 1553 1553 1554 1554 1554 1554 1555 1555 1554 1554 1554 1554 1553 1553 1552
1518 1519 1520 1521 1521 1521 1522 1523 1524 1525 1527 1528 1529 1530 1531 1533 1535 1537 1539 1541 1543 1544 1544 1545 1547 1548 1549 1550 1551 1552 1552 1553 1553 1553 1553 1553 1553 1553 1552 1552 1551 1550 1550
1516 1517 1518 1518 1518 1518 1519 1519 1520 1521 1522 1523 1524 1525 1527 1529 1531 1533 1536 1538 1540 1542 1542 1543 1544 1545 1547 1548 1549 1550 1550 1551 1551 1552 1552 1552 1552 1551 1551 1550 1549 1548 1547
1515 1516 1516 1516 1516 1516 1516 1516 1516 1517 1517 1518 1519 1521 1522 1524 1527 1530 1532 1535 1537 1538 1539 1540 1541 1542 1544 1545 1546 1547 1548 1548 1549 1549 1550 1550 1550 1549 1549 1548 1547 1546 1545
1513 1514 1514 1514 1514 1513 1513 1513 1513 1513 1513 1514 1516 1517 1518 1520 1523 1526 1528 1530 1533 1534 1534 1536 1538 1539 1541 1542 1543 1544 1545 1546 1546 1547 1547 1548 1548 1547 1547 1546 1545 1544 1543
1511 1511 1512 1511 1511 1511 1511 1511 1511 1511 1511 1511 1512 1513 1515 1517 1519 1521 1523 1525 1527 1530 1531 1531 1533 1536 1537 1538 1540 1541 1542 1543 1544 1544 1545 1546 1546 1545 1545 1544 1543 1542 1541
1508 1509 1509 1509 1509 1509 1509 1509 1509 1509 1509 1509 1509 1510 1511 1512 1514 1516 1518 1520 1522 1524 1525 1527 1529 1531 1533 1534 1536 1537 1539 1540 1541 1542 1543 1543 1543 1543 1542 1542 1541 1540 1539
1506 1506 1507 1507 1507 1507 1508 1508 1508 1508 1507 1507 1507 1506 1507 1508 1509 1511 1513 1514 1517 1519 1521 1522 1525 1526 1528 1529 1531 1533 1534 1536 1537 1538 1539 1540 1540 1540 1540 1539 1538 1537 1536
1503 1503 1504 1505 1506 1506 1506 1506 1506 1506 1506 1505 1505 1504 1504 1504 1505 1507 1508 1510 1512 1514 1516 1518 1519 1521 1523 1524 1526 1528 1529 1531 1533 1534 1535 1535 1536 1536 1536 1536 1535 1535 1534
1501 1501 1501 1502 1503 1503 1503 1504 1504 1504 1504 1504 1503 1502 1502 1502 1503 1503 1504 1506 1507 1509 1511 1512 1514 1516 1517 1519 1520 1522 1525 1526 1528 1529 1530 1531 1531 1532 1532 1532 1531 1531 1531
1498 1498 1498 1498 1499 1500 1500 1501 1502 1502 1503 1503 1502 1502 1501 1501 1501 1501 1502 1503 1504 1505 1506 1508 1509 1511 1512 1514 1516 1518 1520 1521 1522 1524 1524 1526 1527 1527 1527 1527 1527 1527 1526
1494 1494 1495 1495 1495 1496 1497 1498 1499 1499 1500 1500 1501 1501 1500 1500 1501 1501 1501 1502 1502 1503 1504 1505 1505 1507 1507 1509 1511 1513 1515 1516 1517 1519 1519 1521 1521 1522 1522 1522 1522 1522 1521
1491 1491 1491 1491 1491 1492 1493 1494 1495 1496 1497 1498 1498 1499 1499 1500 1500 1500 1500 1501 1501 1502 1502 1503 1503 1504 1504 1505 1506 1508 1509 1510 1512 1513 1514 1514 1516 1517 1518 1517 1517 1517 1517
1487 1487 1487 1487 1487 1488 1489 1490 1491 1492 1493 1494 1495 1496 1497 1498 1498 1499 1499 1499 1500 1500 1500 1501 1501 1501 1502 1502 1503 1504 1504 1506 1507 1509 1509 1509 1510 1512 1512 1512 1512 1512 1512
1486 1485 1485 1485 1485 1485 1485 1486 1487 1488 1489 1490 1491 1492 1494 1495 1496 1497 1497 1498 1498 1499 1499 1498 1499 1499 1499 1500 1500 1500 1501 1502 1502 1504 1505 1505 1505 1506 1507 1507 1508 1507 1508
1487 1486 1485 1484 1483 1483 1483 1483 1483 1484 1485 1486 1487 1488 1489 1491 1493 1494 1495 1496 1496 1497 1497 1497 1497 1496 1497 1497 1497 1497 1498 1498 1499 1500 1501 1502 1502 1502 1502 1502 1503 1503 1503